METEOR PRIRODA

Last updated on Tue Sep 16 2025 00:02:14 GMT+0000 (Coordinated Universal Time)

1 12585U 81065A 25258.10660626 .00089188 00000+0 47457-3 0 9993 2 12585 97.4734 316.8291 0005621 180.0833 180.0435 15.80186877416669
UTC large
Height (km)
Speed (km/s)
/
Latitude / Longitude
Inclination (degrees)
Orbital Period (minutes)
Azimuth
Elevation
Range (km)
Doppler Factor

Next 0 passes for location: London (51.5072 / 0.1276)

Sorry there are no passes over London.